Regional Weather Roundup
Issued by NWS

Home | Current Version | Previous Version | Text Only | Print | Product List | Glossary Off
Versions: 1 2 3 4 5 6 7 8 9 10 11 12 13 14 15 16 17 18 19 20 21 22 23 24 25 26 27 28 29 30 31 32 33 34 35 36 37 38 39 40 41 42 43 44 45 46 47 48 49 50

521
ASUS43 KLSX 271907
RWRMO

WEATHER SUMMARY FOR MISSOURI
NATIONAL WEATHER SERVICE SPRINGFIELD MO
200 PM CDT THU APR 27 2017

NOTE: "FAIR" INDICATES FEW OR NO CLOUDS BELOW 12,000 FEET WITH NO
       SIGNIFICANT WEATHER AND/OR OBSTRUCTIONS TO VISIBILITY.
       CURRENT SKY AND/OR WEATHER CONDITIONS ARE NOT AVAILABLE FOR
       CHILLICOTHE AND FARMINGTON.

MOZ001>031-035>038-043-044-053-054-272000-
...NORTHERN AND WESTERN MISSOURI...

CITY           SKY/WX    TMP DP  RH WIND       PRES   REMARKS
KANSAS CTY INT PTSUNNY   59  38  45 SW7       29.72F
KANSAS C DTWN  SUNNY     59  38  45 VRB6      29.72F
LEE`S SUMMIT   SUNNY     58  39  49 S7        29.74F
ST JOSEPH      SUNNY     60  37  42 W8        29.72F
CHILLICOTHE      N/A     56  40  55 SW10      29.74F
KIRKSVILLE     CLOUDY    52  39  61 W10       29.75R

$$
MOZ066>068-077>081-088>096-101>105-272000-
...SOUTHWEST MISSOURI...

CITY           SKY/WX    TMP DP  RH WIND       PRES   REMARKS
SPRINGFIELD    SUNNY     59  40  49 W3        29.77F
JOPLIN         SUNNY     62  44  51 CALM      29.78S
BRANSON        MOSUNNY   59  39  47 E6        29.79F

$$
MOZ032>034-039>042-045>050-055>058-069>072-272000-
...CENTRAL MISSOURI...

CITY           SKY/WX    TMP DP  RH WIND       PRES   REMARKS
COLUMBIA       PTSUNNY   55  42  61 SW12      29.78S
JEFFERSON CITY MOSUNNY   57  40  52 SW9       29.79S
ROLLA          MOSUNNY   55  43  63 W7        29.78S
SEDALIA        MOSUNNY   57  45  64 MISG      29.77F
WHITEMAN AFB   MOSUNNY   57  44  60 W6        29.75F
OSAGE BEACH    SUNNY     57  41  55 W7        29.80F

$$
MOZ051-052-059>065-272000-
...EAST CENTRAL MISSOURI...

CITY           SKY/WX    TMP DP  RH WIND       PRES   REMARKS
ST LOUIS INTL  PTSUNNY   57  41  55 W13       29.79S
SPIRIT OF STL  MOSUNNY   56  42  59 W14       29.78S
ST CHARLES     PTSUNNY   53  40  61 W13       29.78S

$$
MOZ072>076-082>087-097>100-106>115-272000-
...SOUTH CENTRAL AND SOUTHEAST MISSOURI...

CITY           SKY/WX    TMP DP  RH WIND       PRES   REMARKS
CAPE GIRARDEAU CLOUDY    57  47  69 SW10      29.82S
FARMINGTON     SUNNY     57  43  59 W8        29.79S
POPLAR BLUFF   MOSUNNY   59  49  69 S10       29.81F
WEST PLAINS    SUNNY     62  43  49 W8        29.80F

$$



USA.gov is the U.S. government's official web portal to all federal, state and local government web resources and services.